FENGYUN 1C DEB, 30065

Orbit data source: Space-Track

FENGYUN 1C DEB, 30065 is space debris in SSO originally from a launch on Mon, 10 May 1999 UTC launched from the Taiyaun Space Center, China (TSC). Fengyun 1C debris stems from the Chinese weather satellite Fengyun-1C, which was intentionally destroyed by a Chinese anti-satellite missile in 2007. This event dramatically increased the amount of space debris, with thousands of trackable fragments posing hazards to satellites and human spaceflight. The Fengyun 1C debris cloud has become a focal point in discussions about space sustainability and the need for international regulations to prevent the creation of new debris.

Loading next visibility...
Identifier
30065, 1999-025PS
Orbit
SSO
Country
Flag of CNCN / PRC
Related business
Manufacturer
Unknown
Mission
Spacecraft
Bus & Motor
Unknown
Mass
Unknown
Launch date (UTC)
1999-05-10 (27 years ago)
Launch vehicle
Unknown
Launch site
Taiyaun Space Center, China (TSC)
Object type
Payload
Rocket body
Debris
Shape & HBR
Unknown shape, 0.2 m
Radar Cross Section
Medium (>0.1 m² and <1 m²)

Expand to show TLE details & history
Last TLE update: 8 hours ago

TLE from 8 hours ago
0 FENGYUN 1C DEB
1 30065U 99025PS  26166.18139138  .00000075  00000-0  93111-4 0  9995
2 30065  98.7078 131.2315 0129772 247.8717 110.8624 13.86989279982288
Epoch: 2026-06-15T04:21Z
TLE epoch observation values (Epoch: 2026-06-15T04:21:12.215Z)
Latitude
0.00004°
Longitude
162.45913°
Altitude
976.962 km
Speed
7.346 km/s
True Right ascension
08h 44m 55s
True Declination
0° 00' 00"
Sunlit
Object was in daylight at epoch
Visualization orbit readout
Latitude
Unknown
Longitude
Unknown
Altitude
Unknown
Speed
Unknown
Apparent Right ascension
Unknown
Apparent Declination
Unknown
Sunlit
N/A
Visualization observer readout
Local Sidereal Time
23:09:21
Azimuth
Unknown
Elevation
Unknown
Doppler factor
Unknown
Orbital elements
Apogee altitude
1,031.325 km
Perigee altitude
841.481 km
Semi-major axis
7,314.54 km
Eccentricity
0.01298
Inclination
98.7078°
RAAN
131.2315°
Arg. of periapsis
247.8717°
True anomaly
112.24387°
Mean anomaly
110.8624°
Eccentric anomaly
111.55394°
Mean motion
3.46947 °/min
Orbital period
103.76 mins
BSTAR
0.000093111
Loading maneuver chart data...
Computing Atmospheric mass density...

Documentation

Showing up to 5 results
|